Location: Carrières
(48.9495°N, 2.0407°E)
Time: 14:45:00
(UTC+00:00)

Cosmos 44 - Pass Details

Date: 28 January 2023
Orbit: 582 x 777 km, 65.1° (Epoch: 25 March)

Event Time Altitude Azimuth Distance (km) Brightness Sun altitude
Rises 18:22:47 0° 223° (SW) 2,800 7.3 -16.5°
Reaches altitude 10° 18:24:59 10° 226° (SW) 1,913 6.4 -16.8°
Maximum altitude 18:29:16 71° 310° (NW) 642 3.2 -17.5°
Enters shadow 18:32:02 23° 31° (NNE) 1,334 4.4 -18.0°
